| time (UTC) | temp C | wind direction | speed KPH | gust KPH | rain 1hr cm | rain 24hr cm | rain mn cm | humidity % | barometer mb |
| 20260507090053 | 15 | 0 | 1.6 | 11.3 | 0.00 | 0.00 | 0.00 | 63 | 1016.4 |
| 20260507085556 | 14 | 95 | 3.2 | 6.4 | 0.00 | 0.00 | 0.00 | 62 | 1016.4 |
| 20260507085056 | 13 | 113 | 1.6 | 9.7 | 0.00 | 0.00 | 0.00 | 68 | 1016.5 |
| 20260507084609 | 13 | 114 | 1.6 | 9.7 | 0.00 | 0.00 | 0.00 | 67 | 1016.5 |
| 20260507084055 | 13 | 116 | 0.0 | 8.0 | 0.00 | 0.00 | 0.00 | 70 | 1016.4 |
| 20260507083556 | 12 | 0 | 1.6 | 8.0 | 0.00 | 0.00 | 0.00 | 72 | 1016.4 |
| 20260507083058 | 12 | 0 | 1.6 | 8.0 | 0.00 | 0.00 | 0.00 | 75 | 1016.4 |
| 20260507082556 | 12 | 0 | 3.2 | 8.0 | 0.00 | 0.00 | 0.00 | 77 | 1016.5 |
| 20260507082056 | 11 | 0 | 1.6 | 11.3 | 0.00 | 0.00 | 0.00 | 79 | 1016.5 |
| 20260507081819 | 11 | 0 | 0.0 | 12.9 | 0.00 | 0.00 | 0.00 | 82 | 1016.5 |
| 20260507081056 | 11 | 116 | 3.2 | 12.9 | 0.00 | 0.00 | 0.00 | 86 | 1016.5 |
| 20260507080558 | 10 | 113 | 1.6 | 8.0 | 0.00 | 0.00 | 0.00 | 90 | 1016.6 |
| 20260507080053 | 10 | 74 | 1.6 | 8.0 | 0.00 | 0.00 | 0.00 | 93 | 1016.5 |
| 20260507075553 | 9 | 49 | 1.6 | 6.4 | 0.00 | 0.00 | 0.00 | 94 | 1016.3 |
| 20260507075056 | 8 | 0 | 0.0 | 4.8 | 0.00 | 0.00 | 0.00 | 95 | 1016.4 |
| 20260507074558 | 8 | 32 | 0.0 | 3.2 | 0.00 | 0.00 | 0.00 | 95 | 1016.4 |
| 20260507074058 | 8 | 0 | 0.0 | 4.8 | 0.00 | 0.00 | 0.00 | 95 | 1016.4 |
| 20260507073600 | 7 | 0 | 0.0 | 4.8 | 0.00 | 0.00 | 0.00 | 95 | 1016.4 |
| 20260507073101 | 7 | 0 | 0.0 | 3.2 | 0.00 | 0.00 | 0.00 | 96 | 1016.4 |
| 20260507072556 | 6 | 0 | 0.0 | 6.4 | 0.00 | 0.00 | 0.00 | 95 | 1016.4 |
| 20260507072056 | 6 | 0 | 1.6 | 6.4 | 0.00 | 0.00 | 0.00 | 95 | 1016.4 |
| 20260507071555 | 5 | 30 | 0.0 | 3.2 | 0.00 | 0.00 | 0.00 | 95 | 1016.3 |
| 20260507071056 | 5 | 0 | 0.0 | 1.6 | 0.00 | 0.00 | 0.00 | 95 | 1016.4 |
| 20260507070558 | 5 | 0 | 0.0 | 1.6 | 0.00 | 0.00 | 0.00 | 95 | 1016.4 |
| 20260507070105 | 5 | 0 | 0.0 | 1.6 | 0.00 | 0.00 | 0.00 | 94 | 1016.4 |
| 20260507065558 | 4 | 0 | 0.0 | 0.0 | 0.00 | 0.00 | 0.00 | 94 | 1016.3 |
| 20260507065055 | 4 | 0 | 0.0 | 0.0 | 0.00 | 0.00 | 0.00 | 94 | 1016.3 |
| 20260507064558 | 4 | 0 | 0.0 | 0.0 | 0.00 | 0.00 | 0.00 | 94 | 1016.4 |
| 20260507064057 | 4 | 0 | 0.0 | 0.0 | 0.00 | 0.00 | 0.00 | 94 | 1016.4 |
| 20260507063557 | 3 | 0 | 0.0 | 0.0 | 0.00 | 0.00 | 0.00 | 94 | 1016.4 |
| 20260507063057 | 3 | 0 | 0.0 | 1.6 | 0.00 | 0.00 | 0.00 | 94 | 1016.4 |
| 20260507062556 | 3 | 0 | 0.0 | 1.6 | 0.00 | 0.00 | 0.00 | 94 | 1016.4 |
| 20260507062056 | 3 | 0 | 0.0 | 1.6 | 0.00 | 0.00 | 0.00 | 93 | 1016.3 |
| 20260507061559 | 3 | 0 | 0.0 | 1.6 | 0.00 | 0.00 | 0.00 | 93 | 1016.4 |
| 20260507061057 | 3 | 0 | 0.0 | 1.6 | 0.00 | 0.00 | 0.00 | 93 | 1016.3 |
| 20260507060559 | 3 | 0 | 0.0 | 1.6 | 0.00 | 0.00 | 0.00 | 93 | 1016.3 |
| 20260507060104 | 2 | 0 | 0.0 | 1.6 | 0.00 | 0.00 | 0.00 | 93 | 1016.4 |
| 20260507055558 | 2 | 0 | 0.0 | 3.2 | 0.00 | 0.00 | 0.00 | 92 | 1016.2 |
| 20260507055059 | 2 | 0 | 0.0 | 3.2 | 0.00 | 0.00 | 0.00 | 92 | 1016.2 |
| 20260507054558 | 2 | 0 | 0.0 | 3.2 | 0.00 | 0.00 | 0.00 | 92 | 1016.2 |
| 20260507054101 | 2 | 0 | 0.0 | 3.2 | 0.00 | 0.00 | 0.00 | 92 | 1016.0 |
| 20260507053559 | 2 | 0 | 0.0 | 3.2 | 0.00 | 0.00 | 0.00 | 91 | 1016.0 |
| 20260507053058 | 2 | 37 | 0.0 | 3.2 | 0.00 | 0.00 | 0.00 | 91 | 1016.0 |
| 20260507052559 | 2 | 0 | 0.0 | 3.2 | 0.00 | 0.00 | 0.00 | 91 | 1015.9 |
| 20260507052059 | 2 | 0 | 0.0 | 0.0 | 0.00 | 0.00 | 0.00 | 90 | 1015.8 |
| 20260507051559 | 2 | 0 | 0.0 | 0.0 | 0.00 | 0.00 | 0.00 | 90 | 1015.9 |
| 20260507051057 | 2 | 0 | 0.0 | 0.0 | 0.00 | 0.00 | 0.00 | 90 | 1015.8 |
| 20260507050601 | 2 | 0 | 0.0 | 0.0 | 0.00 | 0.00 | 0.00 | 90 | 1015.9 |
| 20260507050059 | 2 | 0 | 0.0 | 0.0 | 0.00 | 0.00 | 0.00 | 89 | 1015.9 |
| 20260507045601 | 2 | 0 | 0.0 | 0.0 | 0.00 | 0.00 | 0.00 | 89 | 1015.8 |
| 20260507045059 | 2 | 0 | 0.0 | 0.0 | 0.00 | 0.00 | 0.00 | 89 | 1015.9 |
| 20260507044610 | 2 | 0 | 0.0 | 0.0 | 0.00 | 0.00 | 0.00 | 89 | 1015.7 |
| 20260507044058 | 2 | 0 | 0.0 | 0.0 | 0.00 | 0.00 | 0.00 | 89 | 1015.8 |
| 20260507043558 | 2 | 0 | 0.0 | 0.0 | 0.00 | 0.00 | 0.00 | 89 | 1015.8 |
| 20260507043118 | 2 | 0 | 0.0 | 0.0 | 0.00 | 0.00 | 0.00 | 89 | 1015.8 |
| 20260507042559 | 2 | 0 | 0.0 | 0.0 | 0.00 | 0.00 | 0.00 | 89 | 1015.7 |
| 20260507042058 | 2 | 0 | 0.0 | 0.0 | 0.00 | 0.00 | 0.00 | 89 | 1015.7 |
| 20260507041604 | 2 | 0 | 0.0 | 0.0 | 0.00 | 0.00 | 0.00 | 89 | 1015.8 |
| 20260507041059 | 2 | 0 | 0.0 | 0.0 | 0.00 | 0.00 | 0.00 | 89 | 1015.8 |
| 20260507040559 | 2 | 0 | 0.0 | 0.0 | 0.00 | 0.00 | 0.00 | 89 | 1015.8 |
| 20260507040059 | 2 | 0 | 0.0 | 0.0 | 0.00 | 0.00 | 0.00 | 89 | 1016.0 |
| 20260507035558 | 2 | 0 | 0.0 | 0.0 | 0.00 | 0.00 | 0.00 | 89 | 1015.9 |
| 20260507035059 | 2 | 0 | 0.0 | 0.0 | 0.00 | 0.00 | 0.00 | 89 | 1015.8 |
| 20260507034559 | 2 | 0 | 0.0 | 0.0 | 0.00 | 0.00 | 0.00 | 89 | 1015.7 |
| 20260507034058 | 3 | 0 | 0.0 | 0.0 | 0.00 | 0.00 | 0.00 | 89 | 1015.7 |
| 20260507033554 | 3 | 0 | 0.0 | 0.0 | 0.00 | 0.00 | 0.00 | 89 | 1015.7 |
| 20260507033056 | 3 | 0 | 0.0 | 0.0 | 0.00 | 0.00 | 0.00 | 89 | 1015.8 |
| 20260507032559 | 3 | 0 | 0.0 | 0.0 | 0.00 | 0.00 | 0.00 | 89 | 1015.8 |
| 20260507032057 | 3 | 0 | 0.0 | 0.0 | 0.00 | 0.00 | 0.00 | 89 | 1015.7 |
| 20260507031557 | 3 | 0 | 0.0 | 0.0 | 0.00 | 0.00 | 0.00 | 89 | 1015.7 |
| 20260507031058 | 3 | 0 | 0.0 | 0.0 | 0.00 | 0.00 | 0.00 | 89 | 1015.7 |
| 20260507030557 | 3 | 0 | 0.0 | 0.0 | 0.00 | 0.00 | 0.00 | 89 | 1015.7 |
| 20260507030057 | 3 | 0 | 0.0 | 0.0 | 0.00 | 0.00 | 0.00 | 89 | 1015.7 |
| 20260507025553 | 3 | 0 | 0.0 | 1.6 | 0.00 | 0.00 | 0.00 | 88 | 1015.7 |
| 20260507025059 | 3 | 0 | 0.0 | 1.6 | 0.00 | 0.00 | 0.00 | 88 | 1015.7 |
| 20260507024557 | 3 | 0 | 0.0 | 3.2 | 0.00 | 0.00 | 0.00 | 88 | 1015.7 |
| 20260507024055 | 3 | 0 | 0.0 | 3.2 | 0.00 | 0.00 | 0.00 | 88 | 1015.7 |
| 20260507023554 | 3 | 0 | 0.0 | 1.6 | 0.00 | 0.00 | 0.00 | 88 | 1015.6 |
| 20260507023108 | 3 | 0 | 0.0 | 1.6 | 0.00 | 0.00 | 0.00 | 87 | 1015.7 |
| 20260507022554 | 3 | 0 | 0.0 | 1.6 | 0.00 | 0.00 | 0.00 | 87 | 1015.7 |
| 20260507022056 | 3 | 0 | 0.0 | 1.6 | 0.00 | 0.00 | 0.00 | 87 | 1015.7 |
| 20260507021555 | 3 | 0 | 0.0 | 1.6 | 0.00 | 0.00 | 0.00 | 87 | 1015.7 |
| 20260507021054 | 3 | 0 | 0.0 | 1.6 | 0.00 | 0.00 | 0.00 | 86 | 1015.7 |
| 20260507020557 | 4 | 0 | 0.0 | 0.0 | 0.00 | 0.00 | 0.00 | 86 | 1015.6 |
| 20260507020103 | 4 | 0 | 0.0 | 0.0 | 0.00 | 0.00 | 0.00 | 86 | 1015.6 |
| 20260507015557 | 4 | 0 | 0.0 | 0.0 | 0.00 | 0.00 | 0.00 | 86 | 1015.6 |
| 20260507015057 | 4 | 0 | 0.0 | 0.0 | 0.00 | 0.00 | 0.00 | 86 | 1015.5 |
| 20260507014558 | 4 | 0 | 0.0 | 0.0 | 0.00 | 0.00 | 0.00 | 86 | 1015.6 |
| 20260507014055 | 4 | 0 | 0.0 | 0.0 | 0.00 | 0.00 | 0.00 | 85 | 1015.6 |
| 20260507013558 | 4 | 0 | 0.0 | 0.0 | 0.00 | 0.00 | 0.00 | 85 | 1015.5 |
| 20260507013057 | 5 | 0 | 0.0 | 0.0 | 0.00 | 0.00 | 0.00 | 85 | 1015.4 |
| 20260507012556 | 5 | 0 | 0.0 | 0.0 | 0.00 | 0.00 | 0.00 | 84 | 1015.5 |
| 20260507012055 | 5 | 0 | 0.0 | 0.0 | 0.00 | 0.00 | 0.00 | 84 | 1015.6 |
| 20260507011555 | 5 | 0 | 0.0 | 0.0 | 0.00 | 0.00 | 0.00 | 84 | 1015.5 |
| 20260507011054 | 5 | 0 | 0.0 | 0.0 | 0.00 | 0.00 | 0.00 | 84 | 1015.5 |
| 20260507010556 | 5 | 0 | 0.0 | 0.0 | 0.00 | 0.00 | 0.00 | 84 | 1015.5 |
| 20260507010057 | 5 | 0 | 0.0 | 0.0 | 0.00 | 0.00 | 0.00 | 84 | 1015.6 |
| 20260507005556 | 5 | 0 | 0.0 | 0.0 | 0.00 | 0.00 | 0.00 | 83 | 1015.5 |
| 20260507005101 | 5 | 0 | 0.0 | 0.0 | 0.00 | 0.00 | 0.00 | 84 | 1015.5 |
| 20260507004556 | 5 | 0 | 0.0 | 0.0 | 0.00 | 0.00 | 0.00 | 84 | 1015.5 |
| 20260507004055 | 5 | 0 | 0.0 | 0.0 | 0.00 | 0.00 | 0.00 | 83 | 1015.6 |
| 20260507003557 | 5 | 0 | 0.0 | 0.0 | 0.00 | 0.00 | 0.00 | 83 | 1015.5 |
| 20260507003111 | 5 | 0 | 0.0 | 0.0 | 0.00 | 0.00 | 0.00 | 83 | 1015.6 |
| 20260507002557 | 6 | 0 | 0.0 | 0.0 | 0.00 | 0.00 | 0.00 | 82 | 1015.5 |
| 20260507002055 | 6 | 0 | 0.0 | 0.0 | 0.00 | 0.00 | 0.00 | 81 | 1015.7 |
| 20260507001615 | 6 | 0 | 0.0 | 0.0 | 0.00 | 0.00 | 0.00 | 81 | 1015.7 |
| 20260507001056 | 6 | 0 | 0.0 | 0.0 | 0.00 | 0.00 | 0.00 | 81 | 1015.6 |
| 20260507000559 | 6 | 0 | 0.0 | 0.0 | 0.00 | 0.00 | 0.00 | 81 | 1015.7 |
| 20260507000058 | 6 | 0 | 0.0 | 0.0 | 0.00 | 0.00 | 0.00 | 81 | 1015.5 |
| 20260506235555 | 6 | 0 | 0.0 | 1.6 | 0.00 | 0.00 | 0.00 | 80 | 1015.7 |
| 20260506235054 | 6 | 0 | 0.0 | 1.6 | 0.00 | 0.00 | 0.00 | 80 | 1015.6 |
| 20260506234557 | 6 | 0 | 0.0 | 1.6 | 0.00 | 0.00 | 0.00 | 80 | 1015.6 |
| 20260506234058 | 6 | 0 | 0.0 | 0.0 | 0.00 | 0.00 | 0.00 | 79 | 1015.5 |
| 20260506233602 | 7 | 0 | 0.0 | 1.6 | 0.00 | 0.00 | 0.00 | 79 | 1015.4 |
| 20260506233101 | 7 | 0 | 0.0 | 1.6 | 0.00 | 0.00 | 0.00 | 78 | 1015.4 |
| 20260506232557 | 7 | 0 | 0.0 | 1.6 | 0.00 | 0.00 | 0.00 | 78 | 1015.4 |
| 20260506232056 | 7 | 0 | 0.0 | 0.0 | 0.00 | 0.00 | 0.00 | 78 | 1015.3 |
| 20260506231606 | 7 | 0 | 0.0 | 1.6 | 0.00 | 0.00 | 0.00 | 78 | 1015.4 |
| 20260506231057 | 7 | 0 | 0.0 | 1.6 | 0.00 | 0.00 | 0.00 | 78 | 1015.3 |
| 20260506230557 | 7 | 0 | 0.0 | 1.6 | 0.00 | 0.00 | 0.00 | 77 | 1015.4 |
| 20260506230113 | 7 | 0 | 0.0 | 1.6 | 0.00 | 0.00 | 0.00 | 77 | 1015.2 |
| 20260506225558 | 8 | 0 | 0.0 | 0.0 | 0.00 | 0.00 | 0.00 | 77 | 1015.3 |
| 20260506225057 | 8 | 0 | 0.0 | 1.6 | 0.00 | 0.00 | 0.00 | 77 | 1015.3 |
| 20260506224554 | 8 | 0 | 0.0 | 3.2 | 0.00 | 0.00 | 0.00 | 75 | 1015.3 |
| 20260506224100 | 8 | 0 | 0.0 | 3.2 | 0.00 | 0.00 | 0.00 | 75 | 1015.3 |
| 20260506223558 | 8 | 0 | 0.0 | 1.6 | 0.00 | 0.00 | 0.00 | 74 | 1015.4 |
| 20260506223057 | 8 | 0 | 0.0 | 4.8 | 0.00 | 0.00 | 0.00 | 75 | 1015.3 |
| 20260506222557 | 8 | 0 | 0.0 | 4.8 | 0.00 | 0.00 | 0.00 | 74 | 1015.4 |
| 20260506222059 | 8 | 0 | 0.0 | 4.8 | 0.00 | 0.00 | 0.00 | 74 | 1015.3 |
| 20260506221609 | 8 | 0 | 0.0 | 3.2 | 0.00 | 0.00 | 0.00 | 73 | 1015.3 |
| 20260506221054 | 9 | 0 | 0.0 | 3.2 | 0.00 | 0.00 | 0.00 | 73 | 1015.2 |
| 20260506220554 | 9 | 0 | 0.0 | 3.2 | 0.00 | 0.00 | 0.00 | 72 | 1015.2 |
| 20260506220100 | 9 | 0 | 0.0 | 4.8 | 0.00 | 0.00 | 0.00 | 72 | 1015.1 |
| 20260506215602 | 9 | 0 | 0.0 | 4.8 | 0.00 | 0.00 | 0.00 | 72 | 1015.0 |
| 20260506215100 | 9 | 0 | 0.0 | 4.8 | 0.00 | 0.00 | 0.00 | 71 | 1015.1 |
| 20260506214557 | 10 | 39 | 0.0 | 8.0 | 0.00 | 0.00 | 0.00 | 71 | 1015.1 |
| 20260506214057 | 10 | 39 | 0.0 | 9.7 | 0.00 | 0.00 | 0.00 | 71 | 1015.0 |
| 20260506213559 | 10 | 0 | 1.6 | 9.7 | 0.00 | 0.00 | 0.00 | 70 | 1015.1 |
| 20260506213059 | 10 | 0 | 1.6 | 9.7 | 0.00 | 0.00 | 0.00 | 70 | 1015.1 |
| 20260506212557 | 10 | 47 | 1.6 | 9.7 | 0.00 | 0.00 | 0.00 | 69 | 1015.1 |
| 20260506212100 | 10 | 41 | 3.2 | 9.7 | 0.00 | 0.00 | 0.00 | 69 | 1015.0 |
| 20260506211556 | 10 | 34 | 3.2 | 8.0 | 0.00 | 0.00 | 0.00 | 69 | 1015.0 |
| 20260506211057 | 10 | 34 | 1.6 | 8.0 | 0.00 | 0.00 | 0.00 | 68 | 1015.0 |
| 20260506210557 | 10 | 32 | 1.6 | 8.0 | 0.00 | 0.00 | 0.00 | 67 | 1015.0 |
| 20260506210058 | 10 | 0 | 1.6 | 8.0 | 0.00 | 0.00 | 0.00 | 67 | 1015.0 |
| 20260506205558 | 10 | 31 | 1.6 | 9.7 | 0.00 | 0.00 | 0.00 | 67 | 1014.9 |
| 20260506205054 | 10 | 0 | 4.8 | 11.3 | 0.00 | 0.00 | 0.00 | 66 | 1014.9 |
| 20260506204601 | 10 | 41 | 1.6 | 11.3 | 0.00 | 0.00 | 0.00 | 65 | 1014.8 |
| 20260506204054 | 10 | 41 | 1.6 | 8.0 | 0.00 | 0.00 | 0.00 | 65 | 1014.9 |
| 20260506203554 | 10 | 22 | 0.0 | 8.0 | 0.00 | 0.00 | 0.00 | 65 | 1014.8 |
| 20260506203120 | 10 | 0 | 1.6 | 8.0 | 0.00 | 0.00 | 0.00 | 64 | 1014.7 |
| 20260506202557 | 10 | 0 | 1.6 | 8.0 | 0.00 | 0.00 | 0.00 | 64 | 1014.8 |
| 20260506202054 | 10 | 0 | 1.6 | 4.8 | 0.00 | 0.00 | 0.00 | 64 | 1014.8 |
| 20260506201554 | 10 | 0 | 0.0 | 9.7 | 0.00 | 0.00 | 0.00 | 64 | 1014.6 |
| 20260506201057 | 10 | 0 | 0.0 | 9.7 | 0.00 | 0.00 | 0.00 | 64 | 1014.6 |
| 20260506200601 | 11 | 0 | 3.2 | 9.7 | 0.00 | 0.00 | 0.00 | 64 | 1014.6 |
| 20260506195557 | 11 | 25 | 1.6 | 8.0 | 0.00 | 0.00 | 0.00 | 63 | 1014.6 |
| 20260506195058 | 11 | 0 | 3.2 | 8.0 | 0.00 | 0.00 | 0.00 | 63 | 1014.4 |
| 20260506194555 | 11 | 22 | 1.6 | 12.9 | 0.00 | 0.00 | 0.00 | 63 | 1014.3 |
| 20260506194058 | 11 | 0 | 4.8 | 12.9 | 0.00 | 0.00 | 0.00 | 63 | 1014.2 |
| 20260506193553 | 11 | 16 | 1.6 | 8.0 | 0.00 | 0.00 | 0.00 | 63 | 1014.2 |
| 20260506193104 | 11 | 7 | 3.2 | 11.3 | 0.00 | 0.00 | 0.00 | 63 | 1014.1 |
| 20260506192554 | 11 | 8 | 4.8 | 11.3 | 0.00 | 0.00 | 0.00 | 63 | 1014.2 |
| 20260506192056 | 11 | 18 | 1.6 | 8.0 | 0.00 | 0.00 | 0.00 | 63 | 1014.0 |
| 20260506191557 | 11 | 0 | 1.6 | 8.0 | 0.00 | 0.00 | 0.00 | 63 | 1014.0 |
| 20260506191054 | 11 | 20 | 3.2 | 8.0 | 0.00 | 0.00 | 0.00 | 62 | 1014.0 |
| 20260506190559 | 11 | 0 | 0.0 | 9.7 | 0.00 | 0.00 | 0.00 | 62 | 1014.1 |
| 20260506190055 | 11 | 0 | 0.0 | 9.7 | 0.00 | 0.00 | 0.00 | 62 | 1014.0 |
| 20260506185557 | 11 | 14 | 1.6 | 8.0 | 0.00 | 0.00 | 0.00 | 62 | 1013.9 |
| 20260506185057 | 11 | 16 | 1.6 | 8.0 | 0.00 | 0.00 | 0.00 | 61 | 1014.0 |
| 20260506184556 | 11 | 13 | 3.2 | 12.9 | 0.00 | 0.00 | 0.00 | 61 | 1013.9 |
| 20260506184057 | 11 | 7 | 3.2 | 12.9 | 0.00 | 0.00 | 0.00 | 61 | 1013.9 |
| 20260506183601 | 11 | 5 | 1.6 | 12.9 | 0.00 | 0.00 | 0.00 | 60 | 1013.9 |
| 20260506183104 | 11 | 5 | 3.2 | 12.9 | 0.00 | 0.00 | 0.00 | 60 | 1013.8 |
| 20260506182557 | 12 | 20 | 3.2 | 12.9 | 0.00 | 0.00 | 0.00 | 60 | 1013.9 |
| 20260506182056 | 12 | 16 | 3.2 | 11.3 | 0.00 | 0.00 | 0.00 | 60 | 1013.6 |
| 20260506181601 | 12 | 355 | 3.2 | 11.3 | 0.00 | 0.00 | 0.00 | 59 | 1013.7 |
| 20260506181055 | 12 | 9 | 3.2 | 12.9 | 0.00 | 0.00 | 0.00 | 60 | 1013.7 |
| 20260506180555 | 12 | 0 | 3.2 | 16.1 | 0.00 | 0.00 | 0.00 | 59 | 1013.7 |
| 20260506180058 | 12 | 7 | 4.8 | 16.1 | 0.00 | 0.00 | 0.00 | 59 | 1013.5 |
| 20260506175554 | 12 | 25 | 4.8 | 16.1 | 0.00 | 0.00 | 0.00 | 59 | 1013.4 |
| 20260506175101 | 12 | 19 | 4.8 | 14.5 | 0.00 | 0.00 | 0.00 | 59 | 1013.4 |
| 20260506174558 | 12 | 0 | 4.8 | 14.5 | 0.00 | 0.00 | 0.00 | 59 | 1013.5 |
| 20260506174057 | 12 | 355 | 6.4 | 14.5 | 0.00 | 0.00 | 0.00 | 59 | 1013.3 |
| 20260506173557 | 12 | 14 | 4.8 | 14.5 | 0.00 | 0.00 | 0.00 | 59 | 1013.4 |
| 20260506173109 | 12 | 342 | 4.8 | 14.5 | 0.00 | 0.00 | 0.00 | 59 | 1013.3 |
| 20260506172557 | 12 | 14 | 3.2 | 16.1 | 0.00 | 0.00 | 0.00 | 59 | 1013.3 |
| 20260506172056 | 12 | 7 | 6.4 | 16.1 | 0.00 | 0.00 | 0.00 | 59 | 1013.2 |
| 20260506171559 | 12 | 0 | 4.8 | 16.1 | 0.00 | 0.00 | 0.00 | 59 | 1013.2 |
| 20260506171056 | 12 | 7 | 4.8 | 12.9 | 0.00 | 0.00 | 0.00 | 59 | 1013.2 |
| 20260506170556 | 12 | 20 | 3.2 | 11.3 | 0.00 | 0.00 | 0.00 | 58 | 1013.2 |
| 20260506170108 | 13 | 34 | 4.8 | 11.3 | 0.00 | 0.00 | 0.00 | 57 | 1013.2 |
| 20260506165556 | 13 | 41 | 1.6 | 11.3 | 0.00 | 0.00 | 0.00 | 57 | 1013.1 |
| 20260506165056 | 13 | 41 | 3.2 | 11.3 | 0.00 | 0.00 | 0.00 | 57 | 1013.1 |
| 20260506164620 | 13 | 41 | 1.6 | 12.9 | 0.00 | 0.00 | 0.00 | 56 | 1013.0 |
| 20260506164056 | 13 | 51 | 3.2 | 12.9 | 0.00 | 0.00 | 0.00 | 56 | 1013.0 |
| 20260506163557 | 13 | 51 | 3.2 | 12.9 | 0.00 | 0.00 | 0.00 | 54 | 1013.0 |
| 20260506163111 | 13 | 84 | 3.2 | 12.9 | 0.00 | 0.00 | 0.00 | 55 | 1013.0 |
| 20260506162556 | 13 | 83 | 3.2 | 16.1 | 0.00 | 0.00 | 0.00 | 55 | 1013.1 |
| 20260506162056 | 13 | 33 | 3.2 | 16.1 | 0.00 | 0.00 | 0.00 | 56 | 1013.1 |
| 20260506161556 | 13 | 53 | 4.8 | 16.1 | 0.00 | 0.00 | 0.00 | 56 | 1012.9 |
| 20260506161100 | 13 | 47 | 4.8 | 16.1 | 0.00 | 0.00 | 0.00 | 57 | 1013.1 |
| 20260506160556 | 13 | 3 | 1.6 | 12.9 | 0.00 | 0.00 | 0.00 | 57 | 1013.0 |
| 20260506160122 | 13 | 0 | 3.2 | 14.5 | 0.00 | 0.00 | 0.00 | 57 | 1013.2 |
| 20260506155556 | 13 | 18 | 4.8 | 16.1 | 0.00 | 0.00 | 0.00 | 57 | 1013.1 |
| 20260506155056 | 13 | 14 | 6.4 | 16.1 | 0.00 | 0.00 | 0.00 | 57 | 1013.2 |
| 20260506154600 | 13 | 336 | 4.8 | 14.5 | 0.00 | 0.00 | 0.00 | 58 | 1013.1 |
| 20260506154056 | 13 | 14 | 4.8 | 17.7 | 0.00 | 0.00 | 0.00 | 59 | 1013.2 |
| 20260506153558 | 13 | 34 | 8.0 | 17.7 | 0.00 | 0.00 | 0.00 | 59 | 1013.1 |
| 20260506153056 | 13 | 355 | 6.4 | 17.7 | 0.00 | 0.00 | 0.00 | 58 | 1013.2 |
| 20260506152557 | 13 | 330 | 4.8 | 17.7 | 0.00 | 0.00 | 0.00 | 59 | 1013.2 |
| 20260506152101 | 13 | 40 | 4.8 | 17.7 | 0.00 | 0.00 | 0.00 | 58 | 1013.3 |
| 20260506151604 | 13 | 49 | 8.0 | 17.7 | 0.00 | 0.00 | 0.00 | 57 | 1013.3 |
| 20260506151057 | 13 | 350 | 3.2 | 14.5 | 0.00 | 0.00 | 0.00 | 56 | 1013.1 |
| 20260506150556 | 13 | 37 | 4.8 | 12.9 | 0.00 | 0.00 | 0.00 | 56 | 1013.1 |
| 20260506150104 | 13 | 64 | 1.6 | 14.5 | 0.00 | 0.00 | 0.00 | 57 | 1013.2 |
| 20260506145557 | 13 | 68 | 6.4 | 14.5 | 0.00 | 0.00 | 0.00 | 57 | 1013.2 |
| 20260506145057 | 13 | 30 | 1.6 | 16.1 | 0.00 | 0.00 | 0.00 | 56 | 1013.2 |
| 20260506144557 | 13 | 28 | 3.2 | 19.3 | 0.00 | 0.00 | 0.00 | 57 | 1013.4 |
| 20260506144056 | 13 | 38 | 6.4 | 20.9 | 0.00 | 0.00 | 0.00 | 56 | 1013.4 |
| 20260506143556 | 13 | 26 | 9.7 | 20.9 | 0.00 | 0.00 | 0.00 | 56 | 1013.3 |
| 20260506143056 | 13 | 30 | 8.0 | 19.3 | 0.00 | 0.00 | 0.00 | 55 | 1013.3 |
| 20260506142556 | 13 | 55 | 8.0 | 16.1 | 0.00 | 0.00 | 0.00 | 53 | 1013.2 |
| 20260506142055 | 13 | 14 | 6.4 | 19.3 | 0.00 | 0.00 | 0.00 | 55 | 1013.1 |
| 20260506141555 | 13 | 0 | 3.2 | 19.3 | 0.00 | 0.00 | 0.00 | 55 | 1013.1 |
| 20260506141056 | 13 | 73 | 3.2 | 17.7 | 0.00 | 0.00 | 0.00 | 55 | 1013.3 |
| 20260506140558 | 13 | 72 | 8.0 | 20.9 | 0.00 | 0.00 | 0.00 | 54 | 1013.3 |
| 20260506140059 | 13 | 12 | 8.0 | 25.7 | 0.00 | 0.00 | 0.00 | 53 | 1013.3 |
| 20260506135556 | 14 | 342 | 12.9 | 25.7 | 0.00 | 0.00 | 0.00 | 53 | 1013.3 |
| 20260506135056 | 14 | 39 | 8.0 | 27.4 | 0.00 | 0.00 | 0.00 | 52 | 1013.3 |
| 20260506134556 | 14 | 46 | 8.0 | 27.4 | 0.00 | 0.00 | 0.00 | 50 | 1013.2 |
| 20260506134059 | 14 | 66 | 9.7 | 27.4 | 0.00 | 0.00 | 0.00 | 51 | 1013.3 |
| 20260506133556 | 14 | 37 | 6.4 | 19.3 | 0.00 | 0.00 | 0.00 | 52 | 1013.1 |
| 20260506133108 | 14 | 42 | 8.0 | 19.3 | 0.00 | 0.00 | 0.00 | 51 | 1013.3 |
| 20260506132558 | 14 | 34 | 3.2 | 22.5 | 0.00 | 0.00 | 0.00 | 50 | 1013.3 |
| 20260506132058 | 14 | 336 | 6.4 | 22.5 | 0.00 | 0.00 | 0.00 | 49 | 1013.2 |
| 20260506131614 | 14 | 26 | 8.0 | 22.5 | 0.00 | 0.00 | 0.00 | 51 | 1013.1 |
| 20260506131056 | 13 | 57 | 3.2 | 20.9 | 0.00 | 0.00 | 0.00 | 53 | 1013.1 |
| 20260506130556 | 13 | 336 | 9.7 | 20.9 | 0.00 | 0.00 | 0.00 | 53 | 1013.3 |
| 20260506130057 | 13 | 328 | 3.2 | 20.9 | 0.00 | 0.00 | 0.00 | 53 | 1013.3 |
| 20260506125556 | 14 | 31 | 9.7 | 19.3 | 0.00 | 0.00 | 0.00 | 51 | 1013.3 |
| 20260506125056 | 14 | 30 | 4.8 | 17.7 | 0.00 | 0.00 | 0.00 | 51 | 1013.4 |
| 20260506124559 | 14 | 66 | 8.0 | 19.3 | 0.00 | 0.00 | 0.00 | 50 | 1013.3 |
| 20260506124056 | 14 | 45 | 4.8 | 19.3 | 0.00 | 0.00 | 0.00 | 51 | 1013.3 |
| 20260506123556 | 14 | 73 | 8.0 | 19.3 | 0.00 | 0.00 | 0.00 | 50 | 1013.3 |
| 20260506123057 | 14 | 19 | 8.0 | 16.1 | 0.00 | 0.00 | 0.00 | 51 | 1013.2 |
| 20260506122556 | 14 | 61 | 1.6 | 17.7 | 0.00 | 0.00 | 0.00 | 51 | 1013.3 |
| 20260506122056 | 14 | 61 | 6.4 | 20.9 | 0.00 | 0.00 | 0.00 | 53 | 1013.3 |
| 20260506121558 | 13 | 26 | 9.7 | 22.5 | 0.00 | 0.00 | 0.00 | 52 | 1013.3 |
| 20260506121056 | 13 | 65 | 11.3 | 22.5 | 0.00 | 0.00 | 0.00 | 52 | 1013.3 |
| 20260506120556 | 13 | 342 | 11.3 | 19.3 | 0.00 | 0.00 | 0.00 | 52 | 1013.3 |
| 20260506120104 | 13 | 20 | 8.0 | 19.3 | 0.00 | 0.00 | 0.00 | 51 | 1013.4 |
| 20260506115557 | 13 | 26 | 6.4 | 22.5 | 0.00 | 0.00 | 0.00 | 52 | 1013.4 |
| 20260506115057 | 13 | 29 | 12.9 | 22.5 | 0.00 | 0.00 | 0.00 | 51 | 1013.4 |
| 20260506114555 | 13 | 45 | 8.0 | 22.5 | 0.00 | 0.00 | 0.00 | 52 | 1013.5 |
| 20260506114101 | 13 | 355 | 9.7 | 22.5 | 0.00 | 0.00 | 0.00 | 52 | 1013.5 |
| 20260506113556 | 13 | 12 | 8.0 | 29.0 | 0.00 | 0.00 | 0.00 | 51 | 1013.4 |
| 20260506113056 | 14 | 24 | 11.3 | 29.0 | 0.00 | 0.00 | 0.00 | 52 | 1013.5 |
| 20260506112557 | 14 | 70 | 8.0 | 19.3 | 0.00 | 0.00 | 0.00 | 50 | 1013.5 |
| 20260506112059 | 14 | 56 | 4.8 | 20.9 | 0.00 | 0.00 | 0.00 | 50 | 1013.5 |
| 20260506111558 | 14 | 342 | 9.7 | 20.9 | 0.00 | 0.00 | 0.00 | 50 | 1013.5 |
| 20260506111056 | 13 | 53 | 9.7 | 19.3 | 0.00 | 0.00 | 0.00 | 50 | 1013.6 |
| 20260506110557 | 13 | 25 | 6.4 | 24.1 | 0.00 | 0.00 | 0.00 | 53 | 1013.4 |
| 20260506110112 | 13 | 18 | 11.3 | 24.1 | 0.00 | 0.00 | 0.00 | 53 | 1013.5 |
| 20260506105557 | 13 | 18 | 3.2 | 20.9 | 0.00 | 0.00 | 0.00 | 59 | 1013.5 |
| 20260506105056 | 13 | 10 | 9.7 | 20.9 | 0.00 | 0.00 | 0.00 | 58 | 1013.6 |
| 20260506104612 | 13 | 309 | 8.0 | 19.3 | 0.00 | 0.00 | 0.00 | 57 | 1013.6 |
| 20260506104056 | 13 | 22 | 6.4 | 22.5 | 0.00 | 0.00 | 0.00 | 57 | 1013.5 |
| 20260506103557 | 13 | 19 | 11.3 | 22.5 | 0.00 | 0.00 | 0.00 | 57 | 1013.7 |
| 20260506103055 | 13 | 4 | 6.4 | 19.3 | 0.00 | 0.00 | 0.00 | 57 | 1013.6 |
| 20260506102558 | 13 | 5 | 9.7 | 20.9 | 0.00 | 0.00 | 0.00 | 58 | 1013.7 |
| 20260506102059 | 13 | 52 | 6.4 | 20.9 | 0.00 | 0.00 | 0.00 | 58 | 1013.7 |
| 20260506101558 | 12 | 32 | 8.0 | 20.9 | 0.00 | 0.00 | 0.00 | 57 | 1013.7 |
| 20260506101057 | 12 | 7 | 8.0 | 20.9 | 0.00 | 0.00 | 0.00 | 57 | 1013.6 |
| 20260506100557 | 12 | 33 | 12.9 | 20.9 | 0.00 | 0.00 | 0.00 | 56 | 1013.7 |
| 20260506100111 | 12 | 47 | 9.7 | 20.9 | 0.00 | 0.00 | 0.00 | 55 | 1013.6 |
| 20260506095557 | 12 | 64 | 9.7 | 20.9 | 0.00 | 0.00 | 0.00 | 55 | 1013.7 |
| 20260506095057 | 12 | 22 | 12.9 | 20.9 | 0.00 | 0.00 | 0.00 | 56 | 1013.7 |
| 20260506094601 | 12 | 36 | 8.0 | 20.9 | 0.00 | 0.00 | 0.00 | 57 | 1013.8 |
| 20260506094058 | 12 | 26 | 6.4 | 19.3 | 0.00 | 0.00 | 0.00 | 59 | 1013.6 |
| 20260506093554 | 12 | 355 | 8.0 | 19.3 | 0.00 | 0.00 | 0.00 | 58 | 1013.5 |
| 20260506093101 | 12 | 0 | 8.0 | 20.9 | 0.00 | 0.00 | 0.00 | 59 | 1013.6 |
| 20260506092559 | 12 | 350 | 8.0 | 24.1 | 0.00 | 0.00 | 0.00 | 59 | 1013.6 |
| 20260506092059 | 12 | 44 | 9.7 | 24.1 | 0.00 | 0.00 | 0.00 | 59 | 1013.6 |
| 20260506091556 | 12 | 30 | 11.3 | 20.9 | 0.00 | 0.00 | 0.00 | 60 | 1013.6 |
| 20260506091057 | 12 | 45 | 6.4 | 22.5 | 0.00 | 0.00 | 0.00 | 61 | 1013.6 |
| 20260506090553 | 12 | 32 | 9.7 | 22.5 | 0.00 | 0.00 | 0.00 | 62 | 1013.7 |